When you browse on this site, cookies collect data to enhance your experience and personalize the content and advertising you see.
Visit our Privacy Policy to learn more. By continuing to use the site, you agree to this use of cookies and data.
  • In Lithuania
  • List of Countries
  • For 7 days
  • Water Temperature
  • Weather Map
  • Weather Widgets
  • user-avatar
    Login

    Hourly Weather Brisbane

    Today, 15 October, Tuesday

    Time Temperature Precipitation Wind Pressure Humidity
    00:00 +18°C° 0 mm 2 mps 759 mmHg 83%
    01:00 +18°C° 0 mm 2 mps 758 mmHg 84%
    02:00 +17°C° 0 mm 2 mps 758 mmHg 85%
    03:00 +17°C° 0 mm 2 mps 758 mmHg 86%
    04:00 +17°C° 0 mm 2 mps 758 mmHg 86%
    05:00 +18°C° 0 mm 2 mps 759 mmHg 82%
    06:00 +19°C° 0 mm 2 mps 759 mmHg 79%
    07:00 +20°C° 0 mm 2 mps 759 mmHg 75%
    08:00 +23°C° 0 mm 2 mps 759 mmHg 70%
    09:00 +24°C° 0 mm 3 mps 759 mmHg 65%
    10:00 +25°C° 0 mm 3 mps 759 mmHg 66%
    11:00 +26°C° 0 mm 3 mps 758 mmHg 62%
    12:00 +27°C° 0 mm 2 mps 757 mmHg 57%
    13:00 +28°C° 0 mm 2 mps 757 mmHg 53%
    14:00 +27°C° 0 mm 3 mps 757 mmHg 55%
    15:00 +27°C° 0 mm 3 mps 756 mmHg 58%
    16:00 +27°C° 0 mm 4 mps 756 mmHg 61%
    17:00 +26°C° 0 mm 4 mps 756 mmHg 69%
    18:00 +23°C° 0 mm 4 mps 757 mmHg 77%
    19:00 +22°C° 0 mm 4 mps 757 mmHg 84%
    20:00 +21°C° 0 mm 3 mps 758 mmHg 86%
    21:00 +21°C° 0 mm 3 mps 758 mmHg 88%
    22:00 +21°C° 0 mm 3 mps 759 mmHg 90%
    23:00 +20°C° 0 mm 2 mps 759 mmHg 90%

    Tomorrow, 16 October, Wednesday

    Time Temperature Precipitation Wind Pressure Humidity
    00:00 +20°C° 0 mm 2 mps 759 mmHg 90%
    01:00 +20°C° 0 mm 2 mps 759 mmHg 91%
    02:00 +21°C° 0 mm 1 mps 759 mmHg 90%
    03:00 +21°C° 0 mm 1 mps 759 mmHg 89%
    04:00 +21°C° 0 mm 1 mps 759 mmHg 89%
    05:00 +22°C° 0 mm 1 mps 759 mmHg 86%
    06:00 +23°C° 0 mm 1 mps 760 mmHg 83%
    07:00 +23°C° 0 mm 2 mps 760 mmHg 80%
    08:00 +24°C° 0 mm 2 mps 760 mmHg 74%
    09:00 +26°C° 0 mm 3 mps 760 mmHg 68%
    10:00 +27°C° 0 mm 3 mps 760 mmHg 61%
    11:00 +28°C° 0 mm 4 mps 759 mmHg 57%
    12:00 +29°C° 0 mm 4 mps 759 mmHg 53%
    13:00 +32°C° 0 mm 5 mps 758 mmHg 49%
    14:00 +30°C° 0 mm 5 mps 758 mmHg 53%
    15:00 +29°C° 0 mm 6 mps 758 mmHg 56%
    16:00 +28°C° 0 mm 6 mps 757 mmHg 60%
    17:00 +27°C° 0 mm 6 mps 758 mmHg 65%
    18:00 +26°C° 0 mm 6 mps 758 mmHg 70%
    19:00 +24°C° 0 mm 6 mps 759 mmHg 75%
    20:00 +23°C° 0 mm 5 mps 759 mmHg 77%
    21:00 +22°C° 0 mm 5 mps 759 mmHg 78%
    22:00 +21°C° 0 mm 4 mps 759 mmHg 80%
    23:00 +21°C° 0 mm 4 mps 759 mmHg 82%

    Day after tomorrow, 17 October, Thursday

    Time Temperature Precipitation Wind Pressure Humidity
    00:00 +20°C° 0 mm 4 mps 759 mmHg 84%
    01:00 +20°C° 0 mm 4 mps 758 mmHg 85%
    02:00 +20°C° 0 mm 3 mps 758 mmHg 86%
    03:00 +19°C° 0 mm 3 mps 758 mmHg 87%
    04:00 +19°C° 0 mm 3 mps 758 mmHg 88%
    05:00 +20°C° 0 mm 3 mps 758 mmHg 84%
    06:00 +21°C° 0 mm 3 mps 759 mmHg 80%
    07:00 +22°C° 0 mm 4 mps 759 mmHg 75%
    08:00 +25°C° 0 mm 4 mps 759 mmHg 67%
    09:00 +27°C° 0 mm 4 mps 759 mmHg 59%
    10:00 +29°C° 0 mm 4 mps 758 mmHg 50%
    11:00 +32°C° 0 mm 4 mps 758 mmHg 46%
    12:00 +33°C° 0 mm 5 mps 757 mmHg 42%
    13:00 +35°C° 0 mm 5 mps 757 mmHg 38%
    14:00 +34°C° 0.2 mm 5 mps 756 mmHg 40%
    15:00 +34°C° 0.2 mm 5 mps 756 mmHg 42%
    16:00 +33°C° 0.2 mm 6 mps 755 mmHg 45%
    17:00 +30°C° 0.4 mm 5 mps 756 mmHg 50%
    18:00 +28°C° 0.4 mm 5 mps 757 mmHg 56%
    19:00 +26°C° 0.4 mm 4 mps 758 mmHg 62%
    20:00 +25°C° 0 mm 4 mps 758 mmHg 62%
    21:00 +24°C° 0 mm 3 mps 759 mmHg 63%
    22:00 +24°C° 0 mm 2 mps 759 mmHg 63%
    23:00 +23°C° 0 mm 2 mps 759 mmHg 64%

    18 October, Friday

    Time Temperature Precipitation Wind Pressure Humidity
    00:00 +23°C° 0 mm 2 mps 759 mmHg 65%
    01:00 +21°C° 0 mm 2 mps 759 mmHg 66%
    02:00 +21°C° 0 mm 2 mps 759 mmHg 65%
    03:00 +20°C° 0 mm 2 mps 760 mmHg 65%
    04:00 +19°C° 0 mm 2 mps 760 mmHg 65%
    05:00 +20°C° 0 mm 2 mps 761 mmHg 63%
    06:00 +21°C° 0 mm 2 mps 761 mmHg 61%
    07:00 +22°C° 0 mm 3 mps 762 mmHg 59%
    08:00 +25°C° 0 mm 3 mps 762 mmHg 51%
    09:00 +26°C° 0 mm 3 mps 762 mmHg 44%
    10:00 +28°C° 0 mm 3 mps 762 mmHg 37%
    11:00 +28°C° 0 mm 4 mps 762 mmHg 36%
    12:00 +28°C° 0 mm 4 mps 761 mmHg 36%
    13:00 +28°C° 0 mm 4 mps 761 mmHg 35%
    14:00 +28°C° 0 mm 4 mps 760 mmHg 38%
    15:00 +27°C° 0 mm 4 mps 760 mmHg 41%
    16:00 +26°C° 0 mm 4 mps 760 mmHg 43%
    17:00 +23°C° 0 mm 4 mps 760 mmHg 51%
    18:00 +22°C° 0 mm 3 mps 761 mmHg 59%
    19:00 +20°C° 0 mm 2 mps 761 mmHg 66%
    20:00 +20°C° 0 mm 2 mps 762 mmHg 71%
    21:00 +20°C° 0 mm 1 mps 762 mmHg 75%
    22:00 +20°C° 0 mm 1 mps 763 mmHg 79%
    23:00 +19°C° 0 mm 1 mps 762 mmHg 81%

    19 October, Saturday

    Time Temperature Precipitation Wind Pressure Humidity
    00:00 +19°C° 0 mm 1 mps 762 mmHg 83%
    01:00 +19°C° 0 mm 1 mps 761 mmHg 85%
    02:00 +18°C° 0 mm 1 mps 761 mmHg 85%
    03:00 +18°C° 0 mm 1 mps 761 mmHg 86%
    04:00 +18°C° 0 mm 1 mps 761 mmHg 87%
    05:00 +19°C° 0 mm 1 mps 762 mmHg 81%
    06:00 +20°C° 0 mm 1 mps 762 mmHg 76%
    07:00 +21°C° 0 mm 1 mps 763 mmHg 70%
    08:00 +24°C° 0 mm 1 mps 762 mmHg 60%
    09:00 +27°C° 0 mm 1 mps 762 mmHg 49%
    10:00 +30°C° 0 mm 1 mps 762 mmHg 38%
    11:00 +31°C° 0 mm 2 mps 761 mmHg 34%
    12:00 +32°C° 0 mm 2 mps 760 mmHg 29%
    13:00 +34°C° 0 mm 2 mps 760 mmHg 25%
    14:00 +33°C° 0 mm 3 mps 759 mmHg 31%
    15:00 +31°C° 0 mm 3 mps 759 mmHg 37%
    16:00 +30°C° 0 mm 4 mps 758 mmHg 42%
    17:00 +28°C° 0 mm 4 mps 759 mmHg 54%
    18:00 +26°C° 0 mm 3 mps 759 mmHg 66%
    19:00 +24°C° 0 mm 3 mps 760 mmHg 78%
    20:00 +23°C° 0 mm 2 mps 760 mmHg 81%
    21:00 +23°C° 0 mm 2 mps 761 mmHg 84%
    22:00 +22°C° 0 mm 1 mps 761 mmHg 87%
    23:00 +21°C° 0 mm 1 mps 761 mmHg 85%

    20 October, Sunday

    Time Temperature Precipitation Wind Pressure Humidity
    00:00 +21°C° 0 mm 1 mps 761 mmHg 84%
    01:00 +20°C° 0 mm 1 mps 761 mmHg 82%
    02:00 +20°C° 0 mm 1 mps 761 mmHg 75%
    03:00 +18°C° 0 mm 2 mps 761 mmHg 68%
    04:00 +18°C° 0 mm 2 mps 761 mmHg 61%
    05:00 +19°C° 0 mm 2 mps 762 mmHg 53%
    06:00 +20°C° 0 mm 3 mps 762 mmHg 44%
    07:00 +21°C° 0 mm 3 mps 763 mmHg 36%
    08:00 +24°C° 0 mm 3 mps 763 mmHg 34%
    09:00 +26°C° 0 mm 4 mps 763 mmHg 32%
    10:00 +28°C° 0 mm 4 mps 763 mmHg 31%
    11:00 +29°C° 0 mm 4 mps 763 mmHg 30%
    12:00 +30°C° 0 mm 5 mps 762 mmHg 29%
    13:00 +32°C° 0 mm 5 mps 762 mmHg 28%
    14:00 +29°C° 0 mm 6 mps 762 mmHg 33%
    15:00 +28°C° 0 mm 6 mps 762 mmHg 39%
    16:00 +26°C° 0 mm 7 mps 762 mmHg 45%
    17:00 +24°C° 0 mm 6 mps 762 mmHg 52%
    18:00 +22°C° 0 mm 5 mps 763 mmHg 59%
    19:00 +21°C° 0 mm 5 mps 764 mmHg 67%
    20:00 +20°C° 0 mm 4 mps 764 mmHg 70%
    21:00 +20°C° 0 mm 4 mps 765 mmHg 73%
    22:00 +20°C° 0 mm 4 mps 765 mmHg 77%
    23:00 +19°C° 0.1 mm 3 mps 765 mmHg 79%
    Show more